GW0701 Weather Reports


Display with metric or nautical units.
time (UTC)temp
F
wind
direction
speed
MPH
gust
MPH
rain 1hr
in
rain 24hr
in
rain mn
in
humidity
%
barometer
mb
20260906052235 77 341 2.0 2.0 0.00 0.00 0.00 96 1015.3
20260906051732 77 44 2.0 3.0 0.00 0.00 0.00 96 1015.3
20260906051231 78 52 2.0 2.0 0.00 0.00 0.00 96 1015.2
20260906050727 78 94 3.0 3.0 0.00 0.00 0.00 95 1015.3
20260906050222 78 63 2.0 2.0 0.00 0.00 0.00 95 1015.2
20260906045720 78 70 3.0 3.0 0.00 0.00 0.00 95 1015.1
20260906045215 78 93 1.0 2.0 0.00 0.00 0.00 95 1015.2
20260906044711 78 25 1.0 1.0 0.00 0.00 0.00 95 1015.1
20260906044206 79 38 0.0 1.0 0.00 0.00 0.00 94 1015.0
20260906043702 79 101 1.0 1.0 0.00 0.00 0.00 94 1015.0
20260906043158 79 44 3.0 3.0 0.00 0.00 0.00 94 1015.0
20260906042657 79 71 3.0 3.0 0.00 0.00 0.00 93 1014.8
20260906042151 79 63 1.0 1.0 0.00 0.00 0.00 93 1014.9
20260906041647 80 60 1.0 2.0 0.00 0.00 0.00 93 1014.8
20260906041142 80 26 1.0 2.0 0.00 0.00 0.00 92 1014.8
20260906040637 80 57 3.0 3.0 0.00 0.00 0.00 92 1014.8
20260906040133 80 69 2.0 3.0 0.00 0.00 0.00 92 1014.7
20260906035628 80 71 2.0 2.0 0.00 0.00 0.00 92 1014.8
20260906035123 80 50 2.0 2.0 0.00 0.00 0.00 92 1014.6
20260906034618 80 68 2.0 2.0 0.00 0.00 0.00 93 1014.4
20260906034113 81 49 2.0 3.0 0.00 0.00 0.00 93 1014.2
20260906033609 81 49 2.0 3.0 0.00 0.00 0.00 93 1014.2
20260906033103 81 36 3.0 5.0 0.00 0.00 0.00 92 1014.3
20260906032600 81 29 1.0 2.0 0.00 0.00 0.00 92 1014.3
20260906032100 81 29 1.0 2.0 0.00 0.00 0.00 92 1014.3
20260906031555 81 79 1.0 1.0 0.00 0.00 0.00 93 1014.3
20260906031050 82 6 1.0 2.0 0.00 0.00 0.00 92 1014.2
20260906030550 82 44 2.0 2.0 0.00 0.00 0.00 92 1014.5
20260906030049 82 44 2.0 2.0 0.00 0.00 0.00 92 1013.9
20260906025544 81 44 2.0 3.0 0.00 0.00 0.00 93 1014.0
20260906025042 81 34 1.0 2.0 0.00 0.00 0.00 94 1014.1
20260906024537 81 327 2.0 2.0 0.00 0.00 0.00 94 1013.9
20260906024031 81 273 0.0 0.0 0.00 0.00 0.00 94 1014.0
20260906023528 81 285 0.0 0.0 0.00 0.00 0.00 93 1013.8
20260906023022 82 295 0.0 0.0 0.00 0.00 0.00 93 1013.7
20260906022518 82 255 0.0 0.0 0.00 0.00 0.00 92 1013.5
20260906022013 83 256 0.0 0.0 0.00 0.00 0.00 90 1013.5
20260906021508 83 214 0.0 0.0 0.00 0.00 0.00 90 1013.6
20260906021003 83 179 0.0 1.0 0.00 0.00 0.00 90 1013.5
20260906020501 83 65 1.0 1.0 0.00 0.00 0.00 90 1013.5
20260906020001 82 42 1.0 1.0 0.00 0.00 0.00 90 1013.3
20260906015501 82 57 1.0 1.0 0.00 0.00 0.00 91 1013.5
20260906015001 82 293 0.0 1.0 0.00 0.00 0.00 92 1013.3
20260906014455 82 48 0.0 0.0 0.00 0.00 0.00 91 1013.4
20260906013951 82 287 1.0 1.0 0.00 0.00 0.00 90 1013.4
20260906013447 83 288 1.0 1.0 0.00 0.00 0.00 90 1013.3
20260906012942 83 300 1.0 1.0 0.00 0.00 0.00 89 1013.3
20260906012437 83 290 0.0 1.0 0.00 0.00 0.00 89 1013.2
20260906011936 83 272 0.0 1.0 0.00 0.00 0.00 88 1013.4
20260906011432 83 288 1.0 1.0 0.00 0.00 0.00 88 1013.2
20260906010927 84 280 0.0 0.0 0.00 0.00 0.00 89 1013.3
20260906010422 84 272 0.0 0.0 0.00 0.00 0.00 89 1013.3
20260906005918 84 272 0.0 0.0 0.00 0.00 0.00 87 1013.2
20260906005418 84 272 0.0 0.0 0.00 0.00 0.00 86 1013.0
20260906004916 85 272 0.0 0.0 0.00 0.00 0.00 86 1012.8
20260906004411 85 272 0.0 0.0 0.00 0.00 0.00 84 1012.9
20260906003906 85 272 0.0 0.0 0.00 0.00 0.00 84 1012.9
20260906003402 86 272 0.0 0.0 0.00 0.00 0.00 83 1013.0
20260906002857 86 271 0.0 0.0 0.00 0.00 0.00 83 1013.0
20260906002356 86 232 0.0 0.0 0.00 0.00 0.00 82 1012.9
20260906001852 87 274 0.0 0.0 0.00 0.00 0.00 82 1013.0
20260906001348 87 264 0.0 0.0 0.00 0.00 0.00 81 1013.3
20260906000842 88 293 0.0 0.0 0.00 0.00 0.00 78 1013.1
20260906000337 88 289 0.0 1.0 0.00 0.00 0.00 77 1013.3
20260905235837 88 318 1.0 1.0 0.00 0.00 0.00 77 1013.4
20260905235331 88 339 1.0 2.0 0.00 0.00 0.00 76 1012.9
20260905234827 89 305 1.0 1.0 0.00 0.00 0.00 76 1013.0
20260905234322 89 286 1.0 1.0 0.00 0.00 0.00 76 1013.0
20260905233817 89 341 1.0 1.0 0.00 0.00 0.00 76 1012.9
20260905233312 89 38 0.0 1.0 0.00 0.00 0.00 75 1013.0
20260905232811 88 272 1.0 1.0 0.00 0.00 0.00 75 1013.0
20260905232307 88 309 1.0 1.0 0.00 0.00 0.00 74 1012.7
20260905231803 88 277 1.0 1.0 0.00 0.00 0.00 74 1012.5
20260905231258 89 290 1.0 1.0 0.00 0.00 0.00 75 1012.6
20260905230754 89 263 0.0 0.0 0.00 0.00 0.00 72 1012.5
20260905230252 90 253 0.0 0.0 0.00 0.00 0.00 72 1012.5
20260905225751 90 301 1.0 1.0 0.00 0.00 0.00 70 1012.5
20260905225247 91 3 1.0 1.0 0.00 0.00 0.00 70 1012.7
20260905224746 91 65 2.0 3.0 0.00 0.00 0.00 68 1012.5
20260905224242 91 128 2.0 2.0 0.00 0.00 0.00 68 1012.5
20260905223737 92 354 2.0 2.0 0.00 0.00 0.00 67 1012.4
20260905223234 92 332 2.0 2.0 0.00 0.00 0.00 66 1012.5
20260905222730 93 353 2.0 2.0 0.00 0.00 0.00 64 1012.3
20260905222228 93 353 3.0 3.0 0.00 0.00 0.00 62 1012.3
20260905221725 93 294 3.0 3.0 0.00 0.00 0.00 63 1012.4
20260905221221 93 338 2.0 2.0 0.00 0.00 0.00 64 1012.5
20260905220717 94 144 1.0 1.0 0.00 0.00 0.00 63 1012.4
20260905220213 94 285 2.0 2.0 0.00 0.00 0.00 64 1012.4
20260905215712 94 298 2.0 2.0 0.00 0.00 0.00 62 1012.6
20260905215208 93 61 3.0 3.0 0.00 0.00 0.00 64 1012.5
20260905214704 94 19 2.0 2.0 0.00 0.00 0.00 64 1012.7
20260905214159 93 344 3.0 5.0 0.00 0.00 0.00 65 1012.8
20260905213654 93 46 1.0 2.0 0.00 0.00 0.00 65 1012.8
20260905213150 93 294 2.0 2.0 0.00 0.00 0.00 64 1012.6
20260905212645 95 266 1.0 2.0 0.00 0.00 0.00 63 1012.4
20260905212144 95 37 1.0 1.0 0.00 0.00 0.00 61 1012.6
20260905211639 97 20 2.0 3.0 0.00 0.00 0.00 56 1012.6
20260905211134 96 327 1.0 2.0 0.00 0.00 0.00 56 1012.6
20260905210631 96 299 1.0 1.0 0.00 0.00 0.00 57 1012.6
20260905210126 97 252 2.0 3.0 0.00 0.00 0.00 55 1012.9
20260905205624 96 290 3.0 3.0 0.00 0.00 0.00 55 1012.7
20260905205119 96 331 3.0 3.0 0.00 0.00 0.00 57 1012.9
20260905204618 96 278 2.0 2.0 0.00 0.00 0.00 56 1012.7
20260905204114 95 311 0.0 1.0 0.00 0.00 0.00 56 1012.9
20260905203614 96 8 4.0 5.0 0.00 0.00 0.00 56 1012.9
20260905203109 95 226 2.0 2.0 0.00 0.00 0.00 56 1012.9
20260905202604 95 318 4.0 6.0 0.00 0.00 0.00 56 1013.1
20260905202059 95 14 4.0 5.0 0.00 0.00 0.00 58 1013.4
20260905201555 95 276 4.0 6.0 0.00 0.00 0.00 58 1013.2
20260905201054 95 267 2.0 3.0 0.00 0.00 0.00 57 1013.4
20260905200550 96 321 6.0 7.0 0.00 0.00 0.00 56 1013.3
20260905200044 95 305 3.0 3.0 0.00 0.00 0.00 57 1013.3
20260905195544 96 298 1.0 1.0 0.00 0.00 0.00 57 1013.3
20260905195040 96 300 3.0 3.0 0.00 0.00 0.00 59 1013.4
20260905194539 96 25 1.0 2.0 0.00 0.00 0.00 57 1013.5
20260905194038 96 308 0.0 1.0 0.00 0.00 0.00 57 1013.3
20260905193534 96 60 6.0 8.0 0.00 0.00 0.00 58 1013.5
20260905193029 95 125 1.0 1.0 0.00 0.00 0.00 61 1013.6
20260905192524 95 321 3.0 3.0 0.00 0.00 0.00 56 1013.6
20260905192020 96 19 3.0 3.0 0.00 0.00 0.00 57 1013.5
20260905191519 94 271 2.0 3.0 0.00 0.00 0.00 60 1013.6
20260905191018 94 320 2.0 3.0 0.00 0.00 0.00 59 1013.7
20260905190516 94 266 1.0 1.0 0.00 0.00 0.00 61 1013.7
20260905190016 94 355 2.0 2.0 0.00 0.00 0.00 63 1013.6
20260905185510 95 352 2.0 3.0 0.00 0.00 0.00 59 1013.8
20260905185009 95 20 6.0 7.0 0.00 0.00 0.00 58 1013.6
20260905184504 95 334 3.0 5.0 0.00 0.00 0.00 58 1013.9
20260905184003 95 0 5.0 6.0 0.00 0.00 0.00 57 1013.8
20260905183503 95 283 0.0 1.0 0.00 0.00 0.00 57 1013.9
20260905182957 95 13 3.0 3.0 0.00 0.00 0.00 57 1013.9
20260905182457 95 33 2.0 3.0 0.00 0.00 0.00 59 1013.8
20260905181952 94 319 3.0 3.0 0.00 0.00 0.00 59 1013.9
20260905181447 95 239 0.0 1.0 0.00 0.00 0.00 60 1014.0
20260905180946 94 328 2.0 2.0 0.00 0.00 0.00 58 1014.1
20260905180441 94 35 2.0 2.0 0.00 0.00 0.00 58 1013.9
20260905175936 94 16 3.0 3.0 0.00 0.00 0.00 57 1013.9
20260905175435 95 15 2.0 2.0 0.00 0.00 0.00 57 1014.0
20260905174931 95 320 1.0 1.0 0.00 0.00 0.00 58 1014.0
20260905174426 95 169 0.0 1.0 0.00 0.00 0.00 59 1014.0
20260905173922 94 300 1.0 1.0 0.00 0.00 0.00 58 1014.0
20260905173418 95 112 4.0 5.0 0.00 0.00 0.00 58 1014.3
20260905172913 95 326 2.0 2.0 0.00 0.00 0.00 58 1014.1
20260905172410 96 6 0.0 1.0 0.00 0.00 0.00 57 1014.3
20260905171907 96 242 0.0 1.0 0.00 0.00 0.00 58 1014.5
20260905171403 95 266 1.0 1.0 0.00 0.00 0.00 60 1014.5
20260905170859 96 266 0.0 1.0 0.00 0.00 0.00 57 1014.5
20260905170355 93 228 1.0 1.0 0.00 0.00 0.00 63 1014.4
20260905165854 93 89 0.0 1.0 0.00 0.00 0.00 63 1014.5
20260905165350 94 11 4.0 5.0 0.00 0.00 0.00 60 1014.6
20260905164844 93 23 3.0 3.0 0.00 0.00 0.00 62 1014.5
20260905164339 93 356 6.0 8.0 0.00 0.00 0.00 62 1014.7
20260905163835 93 38 4.0 5.0 0.00 0.00 0.00 65 1014.6
20260905163331 94 353 3.0 3.0 0.00 0.00 0.00 65 1014.6
20260905162827 95 268 1.0 1.0 0.00 0.00 0.00 63 1014.4
20260905162326 95 266 2.0 2.0 0.00 0.00 0.00 59 1014.5
20260905161821 95 252 0.0 1.0 0.00 0.00 0.00 62 1014.7
20260905161320 94 226 0.0 1.0 0.00 0.00 0.00 62 1014.5
20260905160818 94 246 0.0 0.0 0.00 0.00 0.00 65 1014.4
20260905160313 94 285 1.0 1.0 0.00 0.00 0.00 63 1014.4
20260905155807 93 235 1.0 1.0 0.00 0.00 0.00 67 1014.0
20260905155301 94 241 2.0 2.0 0.00 0.00 0.00 64 1014.3
20260905154755 94 256 0.0 1.0 0.00 0.00 0.00 65 1014.2
20260905154251 93 259 0.0 1.0 0.00 0.00 0.00 66 1014.4
20260905153746 92 257 0.0 1.0 0.00 0.00 0.00 67 1014.2
20260905153242 92 233 0.0 0.0 0.00 0.00 0.00 67 1014.1
20260905152737 92 248 1.0 2.0 0.00 0.00 0.00 67 1014.4
20260905152236 91 253 1.0 1.0 0.00 0.00 0.00 69 1014.4
20260905151731 92 288 1.0 1.0 0.00 0.00 0.00 69 1014.2
20260905151227 90 241 0.0 1.0 0.00 0.00 0.00 69 1014.3
20260905150727 91 239 1.0 1.0 0.00 0.00 0.00 68 1014.2
20260905150226 90 241 2.0 3.0 0.00 0.00 0.00 69 1014.0
20260905145724 90 269 1.0 2.0 0.00 0.00 0.00 70 1014.3
20260905145219 89 245 1.0 1.0 0.00 0.00 0.00 72 1013.9
20260905144717 88 54 1.0 1.0 0.00 0.00 0.00 74 1013.9
20260905144212 89 102 1.0 2.0 0.00 0.00 0.00 73 1014.0
20260905143711 89 220 0.0 0.0 0.00 0.00 0.00 73 1014.1
20260905143206 89 226 0.0 0.0 0.00 0.00 0.00 73 1014.2
20260905142704 88 242 0.0 1.0 0.00 0.00 0.00 74 1014.3
20260905142159 87 248 0.0 0.0 0.00 0.00 0.00 76 1014.1
20260905141655 86 246 1.0 1.0 0.00 0.00 0.00 75 1013.9
20260905141150 87 243 1.0 1.0 0.00 0.00 0.00 74 1014.2
20260905140646 86 198 1.0 1.0 0.00 0.00 0.00 76 1014.3
20260905140145 86 187 2.0 2.0 0.00 0.00 0.00 77 1014.2
20260905135640 86 229 1.0 1.0 0.00 0.00 0.00 75 1014.1
20260905135135 85 235 0.0 1.0 0.00 0.00 0.00 76 1014.2
20260905134624 85 232 0.0 1.0 0.00 0.00 0.00 76 1014.1
20260905134123 84 222 0.0 1.0 0.00 0.00 0.00 77 1013.9
20260905133619 83 199 1.0 1.0 0.00 0.00 0.00 80 1014.2
20260905133119 83 202 1.0 1.0 0.00 0.00 0.00 80 1013.9
20260905132618 82 208 0.0 0.0 0.00 0.00 0.00 82 1013.9
20260905132113 81 186 2.0 2.0 0.00 0.00 0.00 82 1013.9
20260905131608 81 190 1.0 2.0 0.00 0.00 0.00 83 1014.0
20260905131104 81 191 1.0 1.0 0.00 0.00 0.00 83 1014.0
20260905130603 81 194 1.0 1.0 0.00 0.00 0.00 82 1013.9
20260905130058 81 227 0.0 0.0 0.00 0.00 0.00 83 1014.0
20260905125557 80 224 0.0 0.0 0.00 0.00 0.00 87 1014.0
20260905125053 79 243 0.0 1.0 0.00 0.00 0.00 87 1014.0
20260905124549 78 201 0.0 0.0 0.00 0.00 0.00 88 1014.1
20260905124045 79 202 0.0 0.0 0.00 0.00 0.00 88 1014.1
20260905123540 79 227 0.0 0.0 0.00 0.00 0.00 89 1014.0
20260905123037 77 252 0.0 0.0 0.00 0.00 0.00 92 1013.8
20260905122537 77 252 0.0 0.0 0.00 0.00 0.00 94 1013.8
20260905122031 75 252 0.0 0.0 0.00 0.00 0.00 96 1013.8
20260905121526 75 252 0.0 0.0 0.00 0.00 0.00 98 1013.7
20260905121021 74 252 0.0 0.0 0.00 0.00 0.00 98 1013.7
20260905120521 74 253 0.0 0.0 0.00 0.00 0.00 98 1013.5
20260905120016 74 260 0.0 0.0 0.00 0.00 0.00 98 1013.4
20260905115515 73 242 0.0 0.0 0.00 0.00 0.00 98 1013.3
20260905115009 73 242 0.0 0.0 0.00 0.00 0.00 98 1013.2
20260905114504 73 242 0.0 0.0 0.00 0.00 0.00 98 1013.3
20260905114003 73 242 0.0 0.0 0.00 0.00 0.00 98 1013.1
20260905113458 73 238 0.0 0.0 0.00 0.00 0.00 98 1013.5
20260905112953 73 238 0.0 0.0 0.00 0.00 0.00 98 1013.1
20260905112448 73 238 0.0 0.0 0.00 0.00 0.00 98 1013.1
20260905111944 73 242 0.0 0.0 0.00 0.00 0.00 98 1012.9
20260905111443 73 240 0.0 0.0 0.00 0.00 0.00 98 1013.2
20260905110938 74 226 0.0 0.0 0.00 0.00 0.00 98 1013.1
20260905110431 73 246 0.0 0.0 0.00 0.00 0.00 97 1012.8
20260905105931 74 247 0.0 1.0 0.00 0.00 0.00 97 1013.1
20260905105426 74 230 0.0 0.0 0.00 0.00 0.00 96 1013.0
20260905104925 74 228 0.0 0.0 0.00 0.00 0.00 96 1013.0
20260905104421 74 226 0.0 0.0 0.00 0.00 0.00 96 1012.9
20260905103916 74 221 0.0 0.0 0.00 0.00 0.00 97 1013.0
20260905103412 73 197 2.0 2.0 0.00 0.00 0.00 98 1012.9
20260905102907 73 80 0.0 0.0 0.00 0.00 0.00 98 1013.0
20260905102404 73 80 0.0 0.0 0.00 0.00 0.00 98 1012.9
20260905101858 73 80 0.0 0.0 0.00 0.00 0.00 98 1013.1
20260905101356 73 80 0.0 0.0 0.00 0.00 0.00 98 1012.8
20260905100851 73 80 0.0 0.0 0.00 0.00 0.00 98 1013.2
20260905100347 73 80 0.0 0.0 0.00 0.00 0.00 98 1013.0
20260905095846 74 80 0.0 0.0 0.00 0.00 0.00 98 1013.2
20260905095341 73 80 0.0 0.0 0.00 0.00 0.00 98 1013.0
20260905094836 73 78 1.0 1.0 0.00 0.00 0.00 97 1013.1
20260905094331 74 77 0.0 0.0 0.00 0.00 0.00 97 1012.9
20260905093830 74 341 0.0 1.0 0.00 0.00 0.00 97 1013.1
20260905093326 74 282 1.0 1.0 0.00 0.00 0.00 96 1013.0
20260905092822 74 245 0.0 0.0 0.00 0.00 0.00 96 1013.0
20260905092321 74 212 0.0 0.0 0.00 0.00 0.00 96 1012.8
20260905091817 74 211 0.0 0.0 0.00 0.00 0.00 96 1013.1
20260905091316 75 227 0.0 0.0 0.00 0.00 0.00 96 1012.8
20260905090815 75 268 1.0 1.0 0.00 0.00 0.00 95 1012.9
20260905090311 75 246 0.0 1.0 0.00 0.00 0.00 95 1013.1
20260905085810 74 245 0.0 0.0 0.00 0.00 0.00 95 1013.1
20260905085306 74 246 0.0 1.0 0.00 0.00 0.00 96 1013.2
20260905084800 74 224 0.0 0.0 0.00 0.00 0.00 96 1013.1
20260905084300 75 242 1.0 1.0 0.00 0.00 0.00 95 1013.1
20260905083755 75 249 0.0 0.0 0.00 0.00 0.00 96 1013.0
20260905083250 75 147 0.0 1.0 0.00 0.00 0.00 95 1013.1
20260905082746 75 220 0.0 0.0 0.00 0.00 0.00 95 1012.9
20260905082242 75 220 0.0 0.0 0.00 0.00 0.00 95 1013.0
20260905081741 75 233 0.0 0.0 0.00 0.00 0.00 94 1013.2
20260905081237 75 233 0.0 0.0 0.00 0.00 0.00 93 1013.3
20260905080731 76 201 0.0 0.0 0.00 0.00 0.00 93 1013.2
20260905080231 75 200 0.0 0.0 0.00 0.00 0.00 93 1013.4
20260905075730 76 200 0.0 0.0 0.00 0.00 0.00 93 1013.4
20260905075229 75 200 0.0 0.0 0.00 0.00 0.00 93 1013.4
20260905074728 75 188 0.0 0.0 0.00 0.00 0.00 93 1013.3
20260905074224 76 205 0.0 1.0 0.00 0.00 0.00 93 1013.4
20260905073719 76 207 0.0 0.0 0.00 0.00 0.00 92 1013.5
20260905073215 76 207 0.0 0.0 0.00 0.00 0.00 91 1013.5
20260905072714 76 209 0.0 0.0 0.00 0.00 0.00 91 1013.6
20260905072210 77 209 0.0 0.0 0.00 0.00 0.00 91 1013.3
20260905071706 77 209 0.0 0.0 0.00 0.00 0.00 91 1013.4
20260905071202 77 209 0.0 0.0 0.00 0.00 0.00 89 1013.5
20260905070656 77 209 0.0 0.0 0.00 0.00 0.00 87 1013.6
20260905070153 77 209 0.0 0.0 0.00 0.00 0.00 88 1013.6
20260905065651 77 209 0.0 0.0 0.00 0.00 0.00 88 1013.7
20260905065145 77 209 0.0 0.0 0.00 0.00 0.00 89 1013.6
20260905064641 76 209 0.0 0.0 0.00 0.00 0.00 90 1013.5
20260905064137 76 209 0.0 0.0 0.00 0.00 0.00 91 1013.2
20260905063635 76 208 1.0 1.0 0.00 0.00 0.00 91 1013.2
20260905063132 77 210 1.0 1.0 0.00 0.00 0.00 91 1013.1
20260905062627 77 205 1.0 1.0 0.00 0.00 0.00 90 1013.3
20260905062126 77 203 1.0 1.0 0.00 0.00 0.00 90 1013.2
20260905061621 77 203 1.0 1.0 0.00 0.00 0.00 90 1013.3
20260905061120 77 203 1.0 1.0 0.00 0.00 0.00 90 1013.3
20260905060616 77 203 0.0 0.0 0.00 0.00 0.00 90 1013.4
20260905060113 77 203 0.0 0.0 0.00 0.00 0.00 89 1013.4
20260905055611 77 203 0.0 0.0 0.00 0.00 0.00 89 1013.2
20260905055106 77 203 1.0 1.0 0.00 0.00 0.00 89 1013.4
20260905054602 77 203 0.0 0.0 0.00 0.00 0.00 89 1013.3
20260905054057 77 202 0.0 0.0 0.00 0.00 0.00 90 1013.5
20260905053556 78 201 0.0 0.0 0.00 0.00 0.00 88 1013.4
20260905053052 78 205 1.0 1.0 0.00 0.00 0.00 87 1013.3
20260905052551 78 205 0.0 0.0 0.00 0.00 0.00 87 1013.2